星链-31737 (STARLINK-31737 )

导读

STARLINK-31737是美国太空探索技术公司SpaceX星链互联网卫星星座的一员,于北京时间2024年4月18日8点发射升空。作为星链低轨卫星组网的组成部分,它将加入近地轨道星座网络,为全球提供低延迟、高速率的卫星互联网服务,持续推进星链星座的部署与覆盖能力拓展。

基本信息
目录编号:
59537
目录名称:
STARLINK-31737
国际标识:
2024-074D
轨道中心:
EARTH
卫星名称:
星链-31737
卫星全名:
星链-31737 (STARLINK-31737 )
卫星状态:
在轨 (已飞行791 天)
发射日期:
2024-04-18 UTC
国别 :
美国 (US)
星等 :
--
轨道信息
数据来源 国际轨道数据
星历时间: 2026-06-17T12:44:47+0800
22小时前
查看轨道信息
半长轴: 6861.177km
偏心率: 0.000173
轨道倾角: 42.998°
近地点辐角 273.704°
升交点赤经 141.478°
平近点角 86.361°
近地点: 481.853km
远地点: 484.227km
周期: 94.267分钟
每日圈数: 15.275831
详细信息
固有亮度:
5
最大亮度:
1.5
卫星平台:
Starlink v2.0 mini
覆盖范围:
全球
运营商:
太空探索技术公司
运营商所在国:
美国
制造商(研发单位):
太空探索技术公司
制造商所在国:
美国
使用方式:
暂无
卫星简介
星链(Starlink)计划是由太空探索技术公司(SpaceX)提出的一个巨型低轨卫星互联网星座项目,计划在2019年至2024年间在太空搭建由约1.2万颗卫星组成的“星链”网络,其中1584颗将部署在地球上空550千米处的近地轨道,并从2020年开始工作。该卫星仍在工作。
2D轨道图
3D轨道图
轨道高度分析图
轨道倾角分析图
轨道综合分析图
查看轨道综合分析图